Location: Pilipovskiye Korichintsy
(49.1833°N, 27.4667°E)
Time: 01:43:46
(UTC+00:00)

ERS-2 - Visible Passes

Search period start: 24 October 2020 00:00
Search period end: 03 November 2020 00:00
Orbit: 492 x 499 km, 98.6° (Epoch: 23 October)

Date Brightness Start Highest point End Pass type
(mag) Time Alt. Az. Time Alt. Az. Time Alt. Az.
24 Oct 5.2 01:20:23 10° E 01:21:18 13° E 01:21:18 13° E visible
24 Oct 2.2 02:52:12 10° S 02:55:46 52° WSW 02:55:52 52° W visible
24 Oct 2.1 15:50:07 10° NNE 15:53:47 85° ESE 15:57:25 10° SSW visible
24 Oct 5.5 17:25:56 10° NW 17:26:44 11° WNW 17:27:32 10° WNW visible
25 Oct 2.2 02:31:09 10° SSE 02:34:23 69° SSE 02:34:23 69° SSE visible
25 Oct 2.4 15:29:14 10° NNE 15:32:47 47° E 15:36:19 10° S visible
25 Oct 5.1 17:03:38 10° NNW 17:06:01 17° WNW 17:08:23 10° WSW visible
26 Oct 3.4 02:10:22 10° SE 02:12:56 38° ESE 02:12:56 38° ESE visible
26 Oct 3.8 03:45:33 10° SW 03:47:30 15° W 03:47:30 15° W visible
26 Oct 4.3 16:42:08 10° N 16:45:14 26° WNW 16:48:18 10° WSW visible
27 Oct 4.5 01:49:51 10° SE 01:51:31 21° ESE 01:51:31 21° ESE visible
27 Oct 3.2 03:23:31 10° SSW 03:26:06 24° WSW 03:26:06 24° WSW visible
27 Oct 3.3 16:20:53 10° N 16:24:23 44° WNW 16:27:51 10° SW visible
28 Oct 5.3 01:29:42 10° ESE 01:30:07 12° E 01:30:07 12° E visible
28 Oct 2.7 03:02:01 10° S 03:04:42 36° SW 03:04:42 36° SW visible
28 Oct 2.2 15:59:48 10° NNE 16:03:28 79° WNW 16:07:06 10° SSW visible
29 Oct 2.8 02:40:51 10° SSE 02:43:19 41° S 02:43:19 41° S visible
29 Oct 2.2 15:38:52 10° NNE 15:42:29 57° ESE 15:46:05 10° S visible
29 Oct 5.2 17:13:35 10° NNW 17:15:37 14° WNW 17:17:39 10° W visible
30 Oct 3.6 02:19:57 10° SSE 02:21:58 30° SE 02:21:58 30° SE visible
30 Oct 4.1 03:55:51 10° WSW 03:56:32 12° WSW 03:56:32 12° WSW visible
30 Oct 2.9 15:18:07 10° NNE 15:21:26 32° E 15:24:45 10° SSE visible
30 Oct 4.6 16:51:56 10° NNW 16:54:51 23° WNW 16:57:43 10° WSW visible
31 Oct 4.5 01:59:20 10° SE 02:00:37 19° ESE 02:00:37 19° ESE visible
31 Oct 3.7 03:33:28 10° SW 03:35:11 18° WSW 03:35:11 18° WSW visible
31 Oct 3.7 16:30:37 10° N 16:34:00 37° WNW 16:37:23 10° SW visible
01 Nov 5.3 01:39:02 10° ESE 01:39:16 11° ESE 01:39:16 11° ESE visible
01 Nov 3.3 03:11:48 10° SSW 03:13:51 26° SW 03:13:51 26° SW visible
01 Nov 2.5 16:09:29 10° N 16:13:06 65° WNW 16:16:43 10° SSW visible
02 Nov 3.3 02:50:32 10° S 02:52:31 30° S 02:52:31 30° S visible
02 Nov 2.0 15:48:29 10° NNE 15:52:09 71° ESE 15:55:46 10° S visible
02 Nov 5.3 17:23:37 10° NNW 17:25:11 12° WNW 17:26:45 10° W visible
